Regional Weather Roundup
Issued by NWS Portland, ME

Current Version | Previous Version | Graphics & Text | Print | Product List | Glossary On
Versions: 1 2 3 4 5 6 7 8 9 10 11 12 13 14 15 16 17 18 19 20 21 22 23 24 25 26 27 28 29 30 31 32 33 34 35 36 37 38 39 40 41 42 43 44 45 46 47 48 49 50
000
ASUS41 KGYX 010110
RWRGYX
WEATHER ROUNDUP FOR MAINE AND NEW HAMPSHIRE
NATIONAL WEATHER SERVICE GRAY ME
900 PM EDT SUN APR 30 2017

MEZ002-005-006-010-012-015-018-020-021-024-026-027-029-010200-
MAINE

CITY           SKY/WX    TMP DP  RH WIND       PRES   REMARKS
PORTLAND       CLOUDY    45  35  68 SE7       30.27F
SANFORD        CLOUDY    42  40  92 CALM      30.27S
WISCASSET      CLOUDY    46  36  68 S5        30.29F
ROCKLAND       CLOUDY    44  38  79 SW6       30.29S
FRYEBURG       CLOUDY    48  36  63 E8        30.24F
LEWISTONAUBURN CLOUDY    46  35  65 SE7       30.26F
AUGUSTA        CLOUDY    44  35  70 S3        30.26F
BANGOR         LGT RAIN  47  38  71 S9        30.25F
GREENVILLE       N/A     47  26  44 E5        30.20S
MILLINOCKET    CLOUDY    50  29  44 CALM      30.24S
HOULTON        CLOUDY    46  30  53 CALM      30.22F
PRESQUE ISLE   CLOUDY    44  30  57 S3        30.23F
FRENCHVILLE    CLOUDY    45  16  31 W6        30.20F
CARIBOU        CLOUDY    47  27  45 CALM      30.21F
$$

NHZ002-005-008-009-011-012-014-010200-
NEW HAMPSHIRE

CITY           SKY/WX    TMP DP  RH WIND       PRES   REMARKS
PORTSMOUTH     CLOUDY    44  37  75 SE6       30.25R
ROCHESTER      CLOUDY    42  39  89 SE3       30.25F
NASHUA         CLOUDY    48  38  68 SE12      30.26S
MANCHESTER     CLOUDY    47  34  60 SE7       30.24F
CONCORD        CLOUDY    46  37  71 E7        30.25R
LACONIA        CLOUDY    47  39  74 SW3       30.24R
PLYMOUTH       CLOUDY    47  44  90 CALM      30.21F
BERLIN         LGT RAIN  43  39  86 CALM      30.22F FOG
WHITEFIELD     CLOUDY    46  32  58 E9        30.19F
JAFFREY        CLOUDY    49  43  80 S5        30.22R
KEENE          CLOUDY    51  42  71 CALM      30.21S
LEBANON        CLOUDY    46  42  86 S3        30.19F
MT WASHINGTON  FOG       34  34 100 SW25        N/A  VSB 1/4
$$

VTZ005-007-008-010200-
VERMONT

CITY           SKY/WX    TMP DP  RH WIND       PRES   REMARKS
ST JOHNSBURY     N/A     43  39  86 MISG      30.19F
MONTPELIER     CLOUDY    44  36  73 CALM      30.22S
BURLINGTON     CLOUDY    44  35  70 NW5       30.18S
$$

MAZ007-012-024-CTZ003-RIZ002-NYZ038-NYZ072-010200-
SOUTHERN NEW ENGLAND AND NY

CITY           SKY/WX    TMP DP  RH WIND       PRES   REMARKS
BOSTON         CLOUDY    47  38  71 SE8       30.26F
WORCESTER      CLOUDY    48  36  63 S7        30.22R
NANTUCKET      CLOUDY    45  37  73 SE12      30.27F
PROVIDENCE     CLOUDY    48  40  73 S8        30.27R
HARTFORD       CLOUDY    51  39  63 S10       30.23R
ALBANY         CLOUDY    47  37  68 N7        30.15F
NEW YORK CITY  CLOUDY    55  38  52 E15       30.17F
$$

ANZ081-ANZ082-ANZ150-NHZ014-MEZ023>029-010200-
COASTAL MARINE OBSERVATIONS

STATION/POSITION TIME  TEMP    WIND        PRES    WAVE
                       AIR SEA DIR/SP/G            HT/PER
                 (UTC) (F)     (DEG/KT/KT) (MB)    (FT/S)
MOUNT DESERT ROC 0000   42                 1025.4R
MATINICUS ROCK   0000   42     250/ 11/ 12 1025.2R
ISLE OF SHOALS   0000   44     180/ 10/ 10 1025.6R
JEFFREYS LEDGE   0036      45                N/A     2/ 7
CASHES LEDGE BUO 2350   43 44              1026.0    2/ 8
GEORGES BANK BUO 2350   41 42              1025.9    7/ 7
$$

.............KEY..............
   WCI - WIND CHILL
   TC  - TEMPERATURE IN CELSIUS
   VSB - VISIBILITY IN MILES
   HX  - HEAT INDEX
   FAIR- INDICATES FEW OR NO CLOUDS BELOW 12,000 FT, WITH NO
         SIGNIFICANT WEATHER AND/OR OBSTRUCTIONS TO VISIBILITY.






USA.gov is the U.S. government's official web portal to all federal, state and local government web resources and services.